Temperature
17 17 17 17 17 17 17 17 17 17 17 16 17 17 17 17 17 17 17 17 17 17 16 16 16 16 16 16 16 16 16 16 16 16 16 16 16 16 16 16 16 16 15
17 17 17 17 17 17 17 17 17 17 17 17 17 17 17 17 16 16 16 17 17 17 17 16 16 16 16 16 16 16 16 16 16 16 16 16 16 16 16 16 16 16 15
17 17 17 17 17 17 17 17 17 17 17 17 17 17 17 17 17 16 16 16 17 17 17 17 16 16 16 16 16 16 16 16 16 16 16 16 16 16 16 16 16 16 15
17 17 17 17 17 17 17 17 17 17 17 17 17 17 17 17 16 16 16 16 16 16 16 17 17 16 16 16 16 16 16 16 16 16 16 16 16 16 16 16 16 16 15
17 17 17 17 17 17 17 17 17 17 17 17 17 17 17 17 16 17 16 16 16 16 16 17 17 17 16 16 16 16 16 16 16 16 16 16 16 16 16 16 15 15 15
17 17 17 17 17 17 17 17 17 17 17 17 18 17 17 17 17 17 17 17 16 16 16 16 16 16 16 16 16 16 16 16 16 16 16 16 16 16 16 15 15 15 15
17 17 17 17 17 17 17 17 17 17 17 17 17 17 17 17 17 17 17 17 17 16 16 16 16 16 16 16 16 16 16 16 16 16 16 16 16 16 15 15 15 15 15
17 17 17 17 17 17 17 17 17 17 17 17 17 18 18 18 17 18 17 17 17 17 16 16 16 16 16 16 16 16 16 16 16 16 16 16 15 15 15 15 15 15 15
17 17 17 17 17 17 17 17 17 17 17 17 17 18 19 19 19 18 17 17 17 17 17 17 16 16 16 16 16 16 16 16 16 16 16 16 15 15 15 15 15 15 15
17 17 17 17 17 17 17 17 17 17 17 17 17 17 18 18 19 19 18 18 17 17 17 17 17 17 16 16 16 16 16 16 16 16 16 16 15 15 15 15 15 15 15
17 17 17 17 17 17 17 17 17 17 17 17 18 18 17 18 18 19 19 18 18 18 17 17 17 17 17 16 16 16 16 16 16 16 16 16 16 15 15 15 15 15 15
17 17 17 17 17 17 16 16 17 17 17 17 17 18 18 18 19 19 19 18 18 18 17 17 17 17 17 17 16 16 17 16 16 16 16 16 16 16 15 15 15 15 15
17 17 17 17 16 16 16 16 16 17 16 16 17 17 18 18 18 18 19 19 18 18 17 17 17 17 17 16 16 16 17 16 16 16 16 16 16 16 15 15 15 15 15
17 17 17 17 16 16 16 16 16 16 16 16 16 16 17 17 17 18 18 18 19 18 18 17 17 16 16 16 16 16 16 16 16 16 16 16 16 16 16 15 15 15 15
17 17 17 16 16 16 16 16 16 16 16 16 16 16 16 17 17 17 17 18 18 18 18 17 16 16 16 16 16 16 15 16 16 16 16 16 16 15 15 15 15 15 15
16 16 16 16 16 16 16 16 16 16 16 16 16 16 16 16 16 16 16 17 17 17 18 17 16 15 15 15 15 15 15 15 15 15 15 15 15 15 15 15 15 15 15
16 16 16 16 16 16 16 16 16 15 15 15 15 15 16 16 16 16 16 16 16 16 16 16 15 15 15 14 14 14 14 14 14 14 14 14 14 14 14 14 14 14 14
16 16 16 16 16 16 16 15 15 15 15 15 15 15 15 15 15 15 15 15 15 15 15 15 14 14 14 13 13 13 13 13 13 13 13 13 14 14 13 13 13 13 13
16 16 16 16 15 15 15 15 15 15 15 15 15 15 15 15 15 15 14 14 14 14 14 14 13 13 12 12 12 12 12 12 12 12 12 12 12 12 12 12 12 12 12
16 16 16 15 15 15 15 15 15 15 15 14 14 14 14 14 14 14 14 14 13 13 13 13 13 12 12 11 11 11 11 11 11 11 11 11 11 11 11 11 11 11 11
15 15 15 15 15 15 15 15 15 14 14 14 14 13 13 13 13 13 13 13 13 12 12 12 12 11 11 10 10 10 10 10 10 10 10 10 10 9 9 9 9 9 9
15 15 15 15 15 14 14 14 14 14 13 13 13 13 13 12 12 12 12 12 12 12 11 11 11 10 9 9 9 9 9 9 9 9 9 9 9 9 8 8 8 8 8
15 15 15 14 14 14 14 14 14 13 13 13 12 12 11 11 11 11 11 11 11 11 10 10 9 9 8 8 8 8 8 7 8 8 8 8 8 8 8 8 7 7 7
14 14 14 14 14 13 13 13 13 12 12 12 11 11 11 10 10 10 9 9 9 9 9 9 8 8 8 8 7 7 7 7 7 7 7 7 7 7 7 7 6 6 6
14 14 13 13 13 13 12 12 12 12 11 11 10 10 10 10 9 9 8 8 8 8 8 8 8 7 7 7 7 6 6 7 7 7 6 6 6 6 6 6 6 5 5
13 13 13 12 12 12 11 11 11 11 10 10 9 9 9 9 8 8 7 7 7 7 6 6 6 6 6 5 5 5 5 5 6 6 6 5 5 5 5 6 5 5 5
Wind_Speed
5 6 5 4 5 5 6 5 4 5 5 5 4 5 5 3 4 5 9 10 9 8 8 9 9 9 9 8 8 9 9 8 8 8 8 8 8 7 6 6 6 6 6
5 5 5 5 4 4 4 4 5 5 4 4 4 4 5 5 5 5 8 11 10 9 8 9 9 10 9 9 8 8 8 8 8 8 8 8 8 7 7 7 6 6 6
6 5 4 5 5 5 4 4 4 4 4 5 4 4 4 4 5 5 6 8 11 11 10 9 9 10 10 9 9 9 8 8 9 9 8 9 8 8 8 8 8 7 7
7 6 5 5 5 5 5 4 4 4 4 4 4 3 4 4 5 6 6 6 7 9 12 11 10 10 10 10 10 10 9 9 9 9 10 10 10 10 10 10 9 9 9
8 7 5 4 6 5 5 5 4 4 5 4 4 4 4 4 5 6 5 6 6 6 8 13 12 11 11 11 11 11 11 11 10 11 11 12 11 11 12 11 11 11 11
8 7 6 6 6 5 4 3 3 3 3 4 4 4 4 4 4 5 6 6 6 7 7 8 10 12 13 11 11 11 11 12 12 13 13 13 13 13 14 14 14 13 13
8 7 6 6 5 5 5 5 4 6 5 4 3 3 4 5 5 5 5 5 6 7 7 7 7 7 10 14 13 12 12 12 13 13 14 14 14 14 14 15 15 15 15
9 9 7 6 6 4 5 5 5 4 4 5 4 3 4 5 5 5 5 6 5 6 7 8 7 7 7 7 11 14 13 13 13 13 14 15 15 15 16 16 16 16 17
9 8 8 7 6 7 6 6 6 6 5 5 4 3 3 3 5 5 5 5 5 5 6 6 7 7 8 7 7 13 13 13 13 13 14 15 16 17 17 17 17 17 18
9 9 8 7 6 6 5 7 7 6 5 5 4 3 3 2 2 3 5 6 6 6 5 5 5 6 7 7 7 6 10 11 12 12 13 14 15 16 16 16 16 17 17
8 9 8 7 7 6 6 6 5 6 6 5 5 5 4 3 4 3 3 4 5 5 5 5 4 4 5 6 5 4 7 8 10 11 12 12 13 14 15 15 15 16 16
7 9 9 8 8 6 6 6 6 7 5 4 4 4 5 4 4 3 3 4 4 4 3 2 3 3 4 3 2 4 3 4 7 8 9 10 11 11 12 13 14 14 15
8 9 9 8 7 6 6 6 6 5 6 5 5 5 4 3 3 3 3 2 2 3 3 3 2 2 2 1 2 3 2 1 3 4 5 6 7 8 9 10 10 11 13
8 9 9 8 8 7 7 6 6 6 5 5 5 3 3 3 3 3 4 4 4 4 4 2 2 1 1 1 3 1 2 3 1 1 2 3 4 5 6 7 8 9 10
8 9 9 9 8 8 7 7 5 5 5 6 5 5 4 3 3 3 3 4 5 5 3 3 2 3 2 3 4 2 3 7 5 4 2 2 2 3 4 5 6 6 7
8 9 9 9 9 8 8 7 6 5 5 4 2 2 3 3 2 2 3 4 4 5 3 1 1 3 4 3 5 3 3 8 9 8 6 5 4 3 3 3 4 5 5
10 10 9 9 9 9 8 7 6 6 6 5 4 4 3 1 1 1 2 2 3 3 3 1 2 3 4 4 4 4 3 2 6 10 9 8 7 6 6 6 6 6 6
9 10 9 9 9 8 8 8 7 7 6 6 5 4 3 2 2 1 1 1 1 2 2 1 1 2 3 3 3 3 4 4 4 10 9 8 7 6 6 6 7 7 7
8 8 8 8 8 8 7 7 6 6 5 4 4 4 3 3 3 2 2 2 1 1 1 1 0 2 2 3 3 3 3 4 3 4 5 5 5 5 5 5 6 7 9
8 8 8 7 7 7 7 7 7 7 6 6 6 6 6 5 5 4 4 3 3 2 2 1 1 2 2 3 3 3 3 3 4 4 6 4 1 1 2 4 6 8 10
8 8 7 7 6 6 6 8 8 9 9 9 9 9 10 11 12 9 5 4 3 2 2 2 2 3 4 4 4 4 4 4 3 4 6 6 4 4 2 2 5 10 10
8 8 8 8 7 6 10 11 10 10 10 10 10 10 11 12 15 17 18 16 12 6 4 3 4 4 5 5 5 5 5 6 5 5 7 7 6 5 6 5 7 9 9
9 9 9 9 9 9 14 14 12 10 10 9 9 9 8 9 10 11 13 14 15 15 11 6 7 6 5 6 6 6 6 7 7 7 7 8 6 7 8 6 3 4 6
9 9 9 10 10 11 14 15 15 12 11 10 9 9 10 9 8 8 9 10 10 10 10 8 8 7 7 7 6 6 6 6 6 3 5 8 8 8 9 10 3 2 5
10 10 10 11 12 11 12 13 13 11 11 11 10 9 9 9 8 6 9 9 9 8 12 13 10 8 8 8 9 7 7 7 7 6 5 7 9 10 10 9 4 4 9
11 11 11 10 11 11 10 11 11 10 11 10 9 10 11 10 9 6 7 7 7 6 5 5 5 3 3 4 4 7 8 8 8 7 7 8 10 10 9 8 9 13 13
Wind_Direction
171 160 159 166 177 156 163 170 160 152 158 162 168 157 162 147 139 149 139 158 171 174 176 176 174 171 169 171 173 174 175 175 173 173 177 177 175 177 179 179 179 183 182
168 173 173 175 175 175 168 168 159 168 176 160 166 151 166 159 156 167 151 160 172 181 186 185 181 178 179 184 185 184 186 186 185 187 189 187 186 188 194 194 196 198 200
172 185 183 184 178 170 163 181 170 177 175 168 161 164 168 172 162 177 171 168 171 181 191 193 189 190 190 192 193 195 198 197 196 198 200 199 200 202 206 209 210 211 211
185 192 192 190 177 184 184 175 193 182 177 180 169 180 168 165 168 181 183 182 176 178 183 192 197 199 200 200 199 201 205 208 207 209 210 212 214 215 218 218 219 220 219
192 199 199 178 191 195 194 200 181 202 184 183 175 179 186 172 173 188 184 184 184 192 180 178 195 205 208 209 207 208 209 212 215 218 219 220 221 223 224 224 226 228 227
196 200 196 185 201 195 198 205 180 210 203 194 198 165 188 182 187 185 198 185 185 199 201 185 191 201 208 215 216 216 214 214 218 223 226 227 229 228 228 229 231 233 234
195 202 207 180 205 200 204 201 197 189 200 184 190 185 192 195 187 190 208 197 191 202 200 196 211 202 194 206 214 219 218 218 221 225 228 230 232 232 232 235 236 237 239
199 198 207 202 199 199 202 209 209 212 193 186 211 204 194 185 198 199 194 202 204 199 200 200 203 209 228 204 196 206 217 222 226 227 229 231 233 235 235 237 239 241 243
202 207 203 213 201 210 198 206 207 213 206 194 215 236 233 202 170 176 198 196 196 204 212 201 206 203 219 226 205 197 208 221 228 232 233 232 234 236 236 238 239 242 245
202 205 208 208 209 214 197 209 205 212 213 207 195 238 285 345 237 175 187 183 187 200 212 216 205 201 216 227 215 205 206 223 233 238 241 240 239 239 239 240 242 244 246
202 206 206 204 205 212 208 218 196 220 212 219 207 200 202 208 244 235 181 178 177 184 189 204 211 210 210 229 227 199 197 225 238 243 246 246 243 241 240 240 242 245 247
198 202 203 203 207 208 202 210 208 207 226 227 239 219 213 214 226 227 208 203 183 168 173 191 210 204 216 227 204 110 170 226 240 245 249 250 250 249 245 242 243 245 247
197 197 200 201 206 202 205 207 206 213 206 206 223 228 231 238 247 254 259 237 208 178 174 199 189 203 210 201 107 106 115 208 242 250 253 255 256 258 256 253 254 254 255
201 191 195 195 197 198 203 199 204 202 202 207 213 226 237 242 249 253 265 266 243 220 196 188 139 100 36 44 62 109 79 92 95 286 273 268 266 270 269 268 268 267 266
199 190 192 191 192 193 197 198 204 202 198 206 200 198 228 225 240 249 259 269 275 264 215 161 176 78 38 59 40 53 59 73 67 46 18 335 304 294 287 287 289 289 286
193 188 191 189 190 189 188 197 195 193 193 197 208 195 228 229 231 248 260 265 276 285 286 92 104 55 26 21 58 39 71 94 73 59 51 45 37 21 1 348 335 324 316
188 189 191 188 189 188 187 191 196 183 191 183 185 183 193 255 234 243 258 275 285 289 268 209 101 74 45 19 27 11 12 14 74 70 60 52 44 39 34 30 24 15 7
185 185 186 186 187 185 183 186 191 184 185 180 179 172 173 169 162 296 322 325 343 335 289 261 61 70 54 31 28 359 12 15 44 82 70 53 43 41 39 35 27 18 9
178 179 183 184 184 181 180 182 178 172 163 153 145 142 136 129 121 90 53 46 31 31 350 270 78 43 37 23 3 13 27 5 352 95 86 68 50 41 40 41 31 19 10
170 172 174 174 174 173 169 160 150 136 122 108 100 97 92 90 88 85 78 61 54 60 68 61 76 71 44 26 2 351 352 3 347 353 5 349 18 194 134 78 50 31 17
155 152 149 147 148 153 152 142 136 127 119 110 100 92 84 77 65 60 62 56 56 59 76 77 72 59 41 20 8 353 348 337 347 1 339 330 330 329 318 139 71 34 15
138 136 134 131 125 123 108 114 125 124 121 117 110 102 96 87 81 74 67 59 51 53 56 55 66 61 44 25 7 351 349 337 333 6 333 322 326 323 324 330 46 24 6
135 129 125 120 116 112 109 111 112 120 117 114 113 111 105 98 97 95 88 81 67 56 48 50 66 51 43 26 1 352 358 338 327 330 327 316 324 320 319 333 43 353 339
133 127 125 122 118 113 111 111 110 110 106 103 102 102 103 100 94 99 98 87 77 63 56 58 63 51 43 19 353 336 325 308 291 316 340 315 325 322 319 312 270 237 296
124 120 119 119 118 115 110 113 113 112 107 102 98 96 101 101 79 90 103 98 92 91 85 84 80 80 70 43 5 342 342 328 328 334 356 327 324 323 313 304 297 244 279
121 117 112 112 117 118 109 112 119 121 118 114 107 97 86 91 74 60 98 98 92 80 73 90 96 108 67 60 26 2 349 336 331 328 1 335 323 326 315 315 324 318 309
Height
1569 1570 1571 1572 1575 1576 1577 1578 1579 1580 1581 1582 1584 1585 1586 1587 1588 1589 1589 1589 1590 1591 1592 1593 1594 1595 1597 1598 1599 1600 1601 1602 1603 1604 1604 1605 1606 1606 1607 1607 1608 1608 1608
1568 1570 1571 1572 1574 1576 1578 1579 1579 1580 1582 1583 1584 1585 1586 1587 1587 1588 1589 1589 1590 1591 1592 1593 1594 1595 1596 1598 1599 1600 1601 1602 1603 1603 1604 1605 1605 1606 1606 1607 1607 1608 1608
1567 1569 1572 1573 1574 1575 1576 1578 1579 1581 1581 1582 1583 1584 1586 1586 1587 1588 1589 1590 1590 1590 1591 1593 1594 1595 1596 1597 1598 1599 1600 1601 1602 1603 1604 1604 1605 1605 1606 1606 1607 1607 1607
1566 1568 1571 1573 1574 1575 1577 1578 1579 1580 1581 1582 1583 1584 1585 1585 1586 1587 1589 1589 1591 1591 1591 1592 1593 1594 1595 1596 1597 1598 1599 1600 1601 1602 1602 1603 1604 1604 1605 1605 1605 1606 1606
1566 1568 1570 1572 1573 1575 1576 1578 1579 1580 1581 1582 1583 1583 1585 1585 1586 1587 1588 1589 1590 1591 1592 1591 1592 1593 1594 1595 1596 1597 1598 1599 1600 1600 1601 1602 1602 1603 1603 1604 1604 1604 1605
1565 1567 1569 1570 1573 1574 1575 1576 1577 1578 1580 1581 1582 1583 1584 1585 1585 1586 1587 1588 1589 1590 1591 1592 1592 1592 1593 1594 1595 1596 1596 1597 1598 1599 1599 1600 1600 1601 1601 1602 1602 1602 1603
1564 1566 1569 1569 1571 1573 1574 1576 1577 1577 1579 1580 1581 1582 1583 1584 1585 1585 1586 1587 1588 1589 1590 1590 1591 1592 1592 1592 1593 1594 1594 1595 1596 1597 1597 1598 1598 1598 1599 1599 1600 1600 1600
1562 1565 1566 1568 1570 1571 1572 1574 1575 1577 1578 1579 1580 1581 1582 1584 1583 1584 1585 1585 1586 1587 1588 1589 1590 1590 1591 1592 1592 1592 1593 1593 1594 1594 1595 1595 1595 1596 1596 1596 1596 1597 1597
1560 1562 1564 1567 1568 1570 1571 1572 1573 1575 1577 1578 1579 1580 1580 1580 1581 1583 1583 1584 1585 1586 1587 1588 1588 1589 1589 1590 1591 1590 1591 1591 1592 1592 1592 1593 1593 1593 1593 1593 1594 1594 1594
1558 1560 1562 1564 1566 1568 1569 1571 1572 1574 1575 1576 1577 1578 1580 1579 1580 1581 1582 1583 1583 1584 1585 1586 1587 1587 1587 1588 1588 1588 1588 1589 1589 1590 1590 1590 1590 1590 1590 1590 1590 1590 1590
1555 1558 1560 1562 1563 1566 1567 1569 1570 1572 1574 1575 1576 1577 1578 1579 1579 1580 1580 1582 1582 1583 1584 1584 1585 1586 1586 1587 1587 1586 1586 1586 1587 1587 1587 1587 1587 1587 1587 1587 1587 1587 1587
1553 1555 1557 1559 1561 1564 1565 1567 1568 1570 1571 1573 1574 1576 1577 1578 1578 1579 1579 1580 1581 1582 1582 1583 1584 1584 1584 1585 1584 1584 1584 1584 1584 1584 1584 1584 1585 1584 1584 1584 1584 1584 1584
1550 1552 1555 1557 1559 1561 1563 1565 1566 1568 1569 1570 1572 1574 1576 1577 1577 1578 1579 1579 1580 1581 1581 1582 1582 1582 1583 1582 1582 1581 1581 1581 1581 1581 1581 1581 1582 1582 1581 1581 1581 1580 1580
1548 1550 1552 1554 1556 1558 1561 1562 1565 1566 1567 1569 1570 1572 1574 1575 1576 1577 1578 1578 1578 1579 1579 1580 1580 1580 1580 1580 1579 1579 1579 1578 1578 1578 1578 1578 1578 1578 1577 1577 1577 1576 1576
1544 1547 1549 1551 1554 1556 1558 1560 1562 1563 1565 1567 1569 1570 1572 1573 1574 1575 1576 1577 1577 1576 1576 1577 1578 1577 1578 1577 1576 1576 1576 1575 1575 1574 1574 1574 1573 1573 1573 1572 1572 1571 1571
1541 1543 1546 1549 1551 1553 1555 1557 1559 1561 1562 1564 1566 1567 1569 1571 1572 1573 1574 1575 1575 1575 1575 1575 1575 1575 1574 1575 1573 1573 1572 1571 1570 1570 1570 1569 1569 1568 1568 1567 1566 1566 1565
1537 1540 1543 1546 1548 1551 1553 1554 1557 1558 1560 1562 1564 1565 1567 1568 1570 1571 1572 1572 1573 1573 1573 1573 1573 1572 1571 1571 1570 1570 1570 1569 1567 1566 1565 1565 1564 1563 1562 1561 1561 1560 1559
1533 1537 1540 1543 1546 1548 1550 1552 1555 1557 1559 1560 1562 1564 1565 1566 1567 1568 1569 1569 1570 1570 1571 1570 1570 1570 1568 1568 1567 1567 1567 1567 1564 1562 1561 1560 1559 1558 1557 1556 1555 1554 1553
1532 1535 1538 1541 1543 1546 1548 1550 1553 1555 1557 1558 1560 1561 1562 1564 1564 1565 1566 1567 1567 1567 1568 1568 1568 1567 1567 1566 1565 1565 1564 1562 1562 1560 1557 1556 1554 1553 1552 1551 1549 1548 1547
1530 1532 1535 1538 1541 1543 1546 1548 1550 1552 1554 1556 1557 1559 1560 1561 1562 1563 1563 1564 1564 1565 1565 1566 1566 1565 1565 1563 1563 1563 1562 1560 1559 1558 1555 1553 1551 1549 1547 1546 1544 1543 1541
1528 1531 1533 1536 1538 1541 1543 1545 1548 1550 1552 1553 1555 1557 1558 1559 1560 1561 1562 1562 1562 1563 1564 1564 1564 1564 1563 1561 1561 1560 1560 1558 1556 1554 1552 1551 1550 1548 1546 1542 1539 1537 1536
1526 1529 1531 1534 1536 1539 1541 1544 1546 1548 1550 1552 1554 1555 1557 1558 1559 1560 1560 1560 1561 1561 1561 1562 1562 1562 1560 1560 1559 1558 1558 1556 1555 1552 1549 1549 1547 1545 1543 1541 1536 1533 1531
1524 1526 1529 1532 1535 1537 1539 1542 1545 1547 1549 1551 1553 1554 1556 1556 1558 1558 1559 1559 1559 1559 1560 1560 1560 1560 1559 1558 1557 1556 1555 1553 1551 1549 1547 1546 1544 1542 1540 1536 1532 1529 1526
1522 1525 1528 1531 1534 1536 1538 1541 1543 1546 1548 1550 1552 1553 1554 1555 1557 1558 1559 1559 1558 1558 1558 1558 1558 1558 1557 1556 1555 1554 1553 1551 1549 1547 1545 1543 1541 1538 1535 1532 1528 1525 1522
1521 1524 1527 1530 1532 1535 1538 1540 1543 1545 1547 1549 1551 1552 1554 1555 1556 1557 1558 1558 1558 1558 1558 1557 1557 1556 1555 1554 1553 1553 1551 1550 1549 1547 1543 1541 1538 1535 1532 1529 1526 1521 1518
1519 1523 1526 1529 1532 1534 1537 1540 1543 1545 1546 1548 1550 1552 1554 1555 1556 1557 1558 1558 1558 1558 1558 1557 1556 1555 1555 1553 1552 1550 1550 1549 1547 1545 1542 1539 1536 1533 1529 1526 1523 1519 1516